EW1663 Weather Reports


Display with metric or nautical units.
time (UTC)temp
F
wind
direction
speed
MPH
gust
MPH
rain 1hr
in
rain 24hr
in
rain mn
in
humidity
%
barometer
mb
20181120152255 34 133 1.0 5.0 0.00 0.00 0.00 82 1005.3
20181120151314 35 106 1.0 7.0 0.00 0.00 0.00 82 1005.3
20181120150306 35 122 1.0 7.0 0.00 0.00 0.00 82 1005.4
20181120145312 35 123 1.0 6.0 0.00 0.00 0.00 82 1005.4
20181120144318 35 112 2.0 6.0 0.00 0.00 0.00 81 1005.4
20181120143314 35 120 2.0 6.0 0.00 0.00 0.00 81 1005.5
20181120142310 35 131 1.0 6.0 0.00 0.00 0.00 81 1005.6
20181120141314 35 150 1.0 4.0 0.00 0.00 0.00 81 1005.5
20181120140332 35 131 1.0 3.0 0.00 0.00 0.00 82 1005.5
20181120135332 35 125 1.0 4.0 0.00 0.00 0.00 81 1005.6
20181120134337 35 112 2.0 5.0 0.00 0.00 0.00 81 1005.5
20181120133314 35 69 2.0 6.0 0.00 0.00 0.00 81 1005.5
20181120132331 35 116 2.0 8.0 0.00 0.00 0.00 81 1005.5
20181120131319 35 124 1.0 8.0 0.00 0.00 0.00 80 1005.3
20181120130341 35 116 1.0 5.0 0.00 0.00 0.00 80 1005.6
20181120125316 35 126 1.0 5.0 0.00 0.00 0.00 80 1005.5
20181120124308 35 114 1.0 5.0 0.00 0.00 0.00 80 1005.2
20181120123252 35 43 1.0 6.0 0.00 0.00 0.00 80 1005.2
20181120122310 35 118 1.0 7.0 0.00 0.00 0.00 79 1005.3
20181120121258 36 146 1.0 7.0 0.00 0.00 0.00 79 1005.4
20181120120238 36 123 1.0 6.0 0.00 0.00 0.00 80 1005.3
20181120115226 35 107 1.0 6.0 0.00 0.00 0.00 79 1005.3
20181120114218 36 77 1.0 4.0 0.00 0.00 0.00 81 1005.4
20181120113219 34 131 1.0 7.0 0.00 0.00 0.00 82 1005.4
20181120112208 34 108 1.0 7.0 0.00 0.00 0.00 81 1005.8
20181120111218 34 131 1.0 3.0 0.00 0.00 0.00 82 1005.9
20181120110152 34 135 1.0 6.0 0.00 0.00 0.00 82 1006.1
20181120105205 34 127 2.0 6.0 0.00 0.00 0.00 81 1006.1
20181120104148 34 106 1.0 6.0 0.00 0.00 0.00 82 1006.1
20181120103124 34 122 2.0 6.0 0.00 0.00 0.00 82 1006.4
20181120102139 33 119 2.0 9.0 0.00 0.00 0.00 81 1006.3
20181120101116 33 98 2.0 9.0 0.00 0.00 0.00 81 1006.2
20181120100110 33 64 2.0 6.0 0.00 0.00 0.00 81 1006.0
20181120095050 33 131 2.0 8.0 0.00 0.00 0.00 82 1006.2
20181120094111 33 95 2.0 8.0 0.00 0.00 0.00 82 1006.2
20181120093130 33 124 2.0 7.0 0.00 0.00 0.00 82 1006.2
20181120092125 33 131 2.0 7.0 0.00 0.00 0.00 82 1006.3
20181120091109 33 118 2.0 7.0 0.00 0.00 0.00 82 1006.3
20181120090047 33 141 2.0 6.0 0.00 0.00 0.00 82 1006.2
20181120085024 32 88 1.0 4.0 0.00 0.00 0.00 82 1006.3
20181120083954 32 97 1.0 6.0 0.00 0.00 0.00 83 1006.2
20181120082937 32 135 2.0 6.0 0.00 0.00 0.00 82 1006.4
20181120081921 32 133 2.0 5.0 0.00 0.00 0.00 82 1006.2
20181120080920 32 139 1.0 8.0 0.00 0.00 0.00 82 1006.3
20181120075922 32 108 2.0 8.0 0.00 0.00 0.00 82 1006.3
20181120074908 32 118 1.0 4.0 0.00 0.00 0.00 82 1006.4
20181120073930 32 123 1.0 4.0 0.00 0.00 0.00 82 1006.4
20181120072920 32 112 1.0 5.0 0.00 0.00 0.00 82 1006.4
20181120071914 32 140 1.0 5.0 0.00 0.00 0.00 82 1006.3
20181120070847 32 90 1.0 6.0 0.00 0.00 0.00 82 1006.3
20181120065836 32 130 1.0 6.0 0.00 0.00 0.00 82 1006.3
20181120064858 32 119 1.0 7.0 0.00 0.00 0.00 82 1006.3
20181120063835 32 108 1.0 7.0 0.00 0.00 0.00 82 1006.4
20181120062826 32 126 1.0 5.0 0.00 0.00 0.00 82 1006.4
20181120061819 32 126 2.0 7.0 0.00 0.00 0.00 82 1006.3
20181120060839 32 111 2.0 7.0 0.00 0.00 0.00 81 1006.4
20181120055842 32 91 2.0 6.0 0.00 0.00 0.00 81 1006.4
20181120054833 32 99 2.0 7.0 0.00 0.00 0.00 82 1006.5
20181120053814 32 147 1.0 8.0 0.00 0.00 0.00 81 1006.4
20181120052806 32 122 2.0 8.0 0.00 0.00 0.00 81 1006.4
20181120051740 32 122 1.0 8.0 0.00 0.00 0.00 81 1006.3
20181120050732 32 128 1.0 7.0 0.00 0.00 0.00 81 1006.4
20181120045703 33 125 1.0 7.0 0.00 0.00 0.00 81 1006.4
20181120044720 33 84 1.0 11.0 0.00 0.00 0.00 81 1006.4
20181120043739 33 114 2.0 13.0 0.00 0.00 0.00 81 1006.4
20181120042748 33 124 1.0 13.0 0.00 0.00 0.00 81 1006.5
20181120041807 33 139 2.0 9.0 0.00 0.00 0.00 80 1006.6
20181120040740 33 112 3.0 8.0 0.00 0.00 0.00 80 1006.7
20181120035719 33 33 2.0 8.0 0.00 0.00 0.00 80 1006.6
20181120034730 33 104 2.0 8.0 0.00 0.00 0.00 81 1006.6
20181120033727 33 97 2.0 9.0 0.00 0.00 0.00 81 1006.6
20181120032735 33 121 2.0 9.0 0.00 0.00 0.00 81 1006.7
20181120031704 33 105 2.0 7.0 0.00 0.00 0.00 81 1006.7
20181120030720 33 116 2.0 7.0 0.00 0.00 0.00 81 1006.8
20181120025724 33 120 1.0 4.0 0.00 0.00 0.00 82 1007.0
20181120024723 33 94 1.0 4.0 0.00 0.00 0.00 83 1007.2
20181120023657 33 133 0.0 6.0 0.00 0.00 0.00 83 1007.3
20181120022700 33 113 0.0 6.0 0.00 0.00 0.00 83 1007.3
20181120021715 33 78 1.0 6.0 0.00 0.00 0.00 83 1007.3
20181120020734 33 114 0.0 7.0 0.00 0.00 0.00 84 1007.4
20181120015740 33 136 1.0 7.0 0.00 0.00 0.00 84 1007.5
20181120014759 34 218 1.0 6.0 0.00 0.00 0.00 84 1007.7
20181120013737 34 39 0.0 5.0 0.00 0.00 0.00 84 1007.7
20181120012741 34 118 1.0 10.0 0.00 0.00 0.00 84 1007.8
20181120011804 34 129 0.0 6.0 0.00 0.00 0.00 84 1007.8
20181120010738 34 73 1.0 10.0 0.00 0.00 0.00 84 1007.8
20181120005705 34 131 1.0 8.0 0.00 0.00 0.00 84 1008.0
20181120004650 34 108 0.0 6.0 0.00 0.00 0.00 84 1008.2
20181120003634 34 117 1.0 6.0 0.00 0.00 0.00 83 1008.4
20181120002602 34 99 1.0 6.0 0.00 0.00 0.00 83 1008.5
20181120001602 34 89 1.0 7.0 0.00 0.00 0.00 83 1008.6
20181120000607 34 151 1.0 7.0 0.00 0.00 0.00 83 1008.8
20181119235611 34 117 1.0 6.0 0.00 0.00 0.00 83 1008.9
20181119234537 35 70 1.0 7.0 0.00 0.00 0.00 83 1009.0
20181119233538 35 31 1.0 7.0 0.00 0.00 0.00 83 1009.0
20181119232554 35 151 1.0 6.0 0.00 0.00 0.00 83 1009.2
20181119231607 35 133 1.0 6.0 0.00 0.00 0.00 84 1009.3
20181119230559 34 115 1.0 6.0 0.00 0.00 0.00 84 1009.2
20181119225526 34 83 1.0 9.0 0.00 0.00 0.00 84 1009.2
20181119224538 34 118 1.0 9.0 0.00 0.00 0.00 84 1009.2
20181119223554 34 131 2.0 6.0 0.00 0.00 0.00 84 1009.2
20181119222558 34 135 0.0 7.0 0.00 0.00 0.00 85 1009.2
20181119221613 34 112 1.0 7.0 0.00 0.00 0.00 84 1009.3
20181119220549 34 142 1.0 6.0 0.00 0.00 0.00 84 1009.3
20181119215545 34 79 1.0 6.0 0.00 0.00 0.00 85 1009.3
20181119214550 34 74 1.0 6.0 0.00 0.00 0.00 85 1009.3
20181119213535 34 156 2.0 6.0 0.00 0.00 0.00 85 1009.4
20181119212548 34 106 2.0 10.0 0.00 0.00 0.00 85 1009.5
20181119211544 34 138 1.0 10.0 0.00 0.00 0.00 86 1009.5
20181119210603 34 172 2.0 9.0 0.00 0.00 0.00 86 1009.6
20181119205542 34 135 1.0 7.0 0.00 0.00 0.00 88 1009.7
20181119204532 34 147 1.0 5.0 0.00 0.00 0.00 88 1009.7
20181119203551 34 78 0.0 6.0 0.00 0.00 0.00 88 1009.8
20181119202544 34 48 1.0 7.0 0.00 0.00 0.00 88 1009.7
20181119201559 34 176 0.0 12.0 0.00 0.00 0.00 88 1009.7
20181119200601 34 106 1.0 12.0 0.00 0.00 0.00 88 1009.7
20181119195542 34 121 1.0 5.0 0.00 0.00 0.00 88 1009.9
20181119194514 34 135 0.0 8.0 0.00 0.00 0.00 88 1009.9
20181119193440 34 9 1.0 8.0 0.00 0.00 0.00 89 1010.0
20181119192414 34 137 1.0 7.0 0.00 0.00 0.00 89 1010.2
20181119191355 34 93 1.0 11.0 0.00 0.00 0.00 89 1010.2
20181119190350 34 54 1.0 11.0 0.00 0.00 0.00 89 1010.3
20181119185348 34 83 0.0 6.0 0.00 0.00 0.00 88 1010.3
20181119184406 34 31 0.0 9.0 0.00 0.00 0.00 87 1010.5
20181119183426 35 102 1.0 9.0 0.00 0.00 0.00 86 1010.6
20181119182419 35 238 1.0 7.0 0.00 0.00 0.00 86 1010.7
20181119181429 34 21 0.0 4.0 0.00 0.00 0.00 86 1010.8
20181119180451 35 60 1.0 6.0 0.00 0.00 0.00 86 1011.0
20181119175453 35 331 1.0 9.0 0.00 0.00 0.00 86 1011.1
20181119174423 35 42 2.0 9.0 0.00 0.00 0.00 86 1011.0
20181119173423 35 337 0.0 7.0 0.00 0.00 0.00 86 1011.1
20181119172414 35 7 0.0 8.0 0.00 0.00 0.00 86 1011.2
20181119171357 35 193 1.0 8.0 0.00 0.00 0.00 86 1011.3
20181119170347 35 3 1.0 6.0 0.00 0.00 0.00 86 1011.4
20181119165400 35 346 0.0 5.0 0.00 0.00 0.00 86 1011.5
20181119164332 35 44 1.0 8.0 0.00 0.00 0.00 86 1011.6
20181119163330 35 6 1.0 8.0 0.00 0.00 0.00 86 1011.8
20181119162346 35 52 1.0 8.0 0.00 0.00 0.00 85 1011.9
20181119161343 35 31 1.0 8.0 0.00 0.00 0.00 85 1012.0
20181119160402 35 25 0.0 6.0 0.00 0.00 0.00 84 1012.1
20181119155354 36 45 1.0 7.0 0.00 0.00 0.00 84 1012.3
20181119154418 36 36 1.0 7.0 0.00 0.00 0.00 84 1012.3
20181119153403 36 22 1.0 8.0 0.00 0.00 0.00 84 1012.3